Weather

Time Summary Temperature Precipitation Pressure Wind Humidity
00:00 Overcast 5.8 °C N/A 1,026.2mb 4.4 km/h 86%
00:30 Mostly Cloudy 5.5 °C N/A 1,025.9mb 4.4 km/h 87%
01:00 Mostly Cloudy 6.1 °C N/A 1,025.6mb 3.5 km/h 86%
01:30 Mostly Cloudy 5.8 °C N/A 1,025.2mb 3.0 km/h 87%
02:00 Mostly Cloudy 6.9 °C N/A 1,024.8mb 9.0 km/h 82%
02:30 Mostly Cloudy 6.6 °C N/A 1,024.4mb 7.6 km/h 84%
03:00 Mostly Cloudy 6.3 °C N/A 1,024.0mb 5.6 km/h 87%
03:30 Mostly Cloudy 6.0 °C N/A 1,023.5mb 5.9 km/h 87%
04:00 Mostly Cloudy 6.9 °C N/A 1,023.0mb 5.6 km/h 87%
04:30 Mostly Cloudy 6.6 °C N/A 1,022.5mb 6.0 km/h 87%
05:00 Mostly Cloudy 6.9 °C N/A 1,021.9mb 5.7 km/h 87%
05:30 Mostly Cloudy 6.6 °C N/A 1,021.7mb 6.1 km/h 88%
06:00 Overcast 7.1 °C N/A 1,021.3mb 5.9 km/h 87%
06:30 Mostly Cloudy 7.0 °C N/A 1,021.0mb 6.3 km/h 89%
07:00 Mostly Cloudy 8.3 °C N/A 1,020.7mb 7.9 km/h 83%
07:30 Mostly Cloudy 8.4 °C N/A 1,020.4mb 0.9 km/h 84%
08:00 Windy and Overcast 9.0 °C N/A 1,020.1mb 14.1 km/h 87%
08:30 Windy and Overcast 9.1 °C N/A 1,019.8mb 12.0 km/h 86%
09:00 Windy and Partly Cloudy 8.9 °C N/A 1,019.6mb 14.9 km/h 85%
09:30 Windy and Partly Cloudy 8.7 °C 0.1 mm/h 1,019.4mb 13.8 km/h 84%
10:00 Partly Cloudy 8.1 °C N/A 1,019.1mb 7.5 km/h 84%
10:30 Partly Cloudy 7.9 °C N/A 1,018.9mb 1.7 km/h 83%
11:00 Partly Cloudy 8.6 °C N/A 1,018.8mb 10.6 km/h 85%
11:30 Mostly Cloudy 9.4 °C N/A 1,018.6mb 9.2 km/h 78%
12:00 Windy and Mostly Cloudy 11.2 °C 0.1 mm/h 1,018.4mb 16.4 km/h 74%
12:30 Drizzle and Windy 11.0 °C 0.2 mm/h 1,018.2mb 15.1 km/h 73%
13:00 Light Rain 9.4 °C 0.4 mm/h 1,017.9mb 8.4 km/h 82%
13:30 Mostly Cloudy 9.4 °C 0.1 mm/h 1,017.7mb 8.0 km/h 80%
14:00 Mostly Cloudy 9.1 °C 0.2 mm/h 1,017.5mb 7.9 km/h 79%
14:30 Mostly Cloudy 9.1 °C N/A 1,017.2mb 7.8 km/h 78%
15:00 Drizzle 9.0 °C 0.2 mm/h 1,017.0mb 7.9 km/h 80%
15:30 Mostly Cloudy 8.9 °C N/A 1,016.8mb 7.8 km/h 80%
16:00 Mostly Cloudy 9.0 °C N/A 1,016.6mb 8.5 km/h 81%
16:30 Mostly Cloudy 8.9 °C N/A 1,016.5mb 8.2 km/h 81%
17:00 Partly Cloudy 8.9 °C N/A 1,016.3mb 7.9 km/h 82%
17:30 Mostly Cloudy 8.9 °C N/A 1,016.2mb 7.7 km/h 82%
18:00 Partly Cloudy 9.1 °C N/A 1,016.2mb 7.9 km/h 84%
18:30 Mostly Cloudy 9.1 °C N/A 1,015.9mb 8.2 km/h 80%
19:00 Mostly Cloudy 8.4 °C N/A 1,015.7mb 8.8 km/h 82%
19:30 Mostly Cloudy 8.7 °C N/A 1,015.4mb 8.7 km/h 82%
20:00 Mostly Cloudy 8.7 °C 0.1 mm/h 1,015.2mb 6.8 km/h 88%
20:30 Mostly Cloudy 9.0 °C N/A 1,014.9mb 7.0 km/h 87%
21:00 Mostly Cloudy 8.7 °C N/A 1,014.7mb 6.7 km/h 92%
21:30 Mostly Cloudy 9.0 °C N/A 1,014.5mb 7.1 km/h 90%
22:00 Mostly Cloudy 8.6 °C N/A 1,014.4mb 6.3 km/h 90%
22:30 Mostly Cloudy 8.8 °C N/A 1,014.3mb 6.8 km/h 88%
23:00 Overcast 9.4 °C N/A 1,014.1mb 6.3 km/h 89%
23:30 Overcast 9.7 °C N/A 1,014.0mb 6.8 km/h 86%